Погода в Чердыни

Погода в Чердыни : погода сейчас, прогноз погоды и архив. Всё, что Вы хотите узнать о погоде в Чердыни!

Хотите узнать прогноз погоды в Чердыни? Тогда Вам сюда: Погода в Чердыни

Поиск расширенной информации на нашем сайте:

Другие новости

Новости СМИ2

Главная страница сайта

Новости сайта

03.07.2017

Напоминаем, что на нашем специализированном сайте Метеоцентр.Азия вы можете получить высокодетализированные автоматические прогнозы погоды по пунктам России, СНГ и мира в авиационном формате (включающие направление и скорость ветра, видимость, явления погоды, количество и форму облачности, нижнюю и верхнюю границу облачности).


Погода в Чердыни - сегодня

Время (UTC), дата Ветер
(°,м/с) 
Видим.   Явления Облачность Т
(°С)
Тd
(°С)
f(%) Тe
(°С)
Pmin
(гПа)
dP
(гПа)
Po
(мм)
O2
(г/м3)
Тmin Tmax R s Состояние
почвы
00 16.05.18 290 (З) 20000 м    3/3 2000 м средняя 
[Ac lent]
-1.5 -5.6 74 -2  1023  1.1  748  303           
03 16.05.18 330 (СЗ) 20000 м    4/0 верхняя 
[Ci]
+2.4 -5.4 56 +2  1023.6  0.9  748  299  -1.6        сухая 
06 16.05.18 340 (С) 20000 м    6/0 верхняя 
[Ci]
+5.4 -6.2 43 +4  1023.7  0.3  749  296           
09 16.05.18 360 (С) 20000 м    8/0 верхняя 
[Ci]
+8.5 -7 33 +8  1022.7  -0.7  748  293           
12 16.05.18 080 (В) 20000 м    8/0 верхняя 
[Ci]
+9.9 -7.4 29 +10  1021.4  -1.1  747  291           
18 16.05.18 160 (Ю) 20000 м    8/1 300 м средняя, верхняя 
[Sc|Ac As|Ci fib]
+7.1 -6.5 37 +7  1019.4  -1  746  293           
21 16.05.18 200 (Ю) 20000 м    4/0 верхняя 
[Ci fib]
+4 -6.8 45 +3  1018.4  -1.2  745  296           
00 17.05.18 280 (З) н/о    н/о 
+2.4 -6 54 +3  1017.8  -0.8  744  298           
03 17.05.18 110 (В) 20000 м    8/0 верхняя 
[Ci]
+5.5 -1.5 61 +6  1016.6  -0.8  743  294  +1.9        сухая 
06 17.05.18 300 (СЗ) 20000 м    3/0 верхняя 
[Ci fib]
+13.1 -5.1 28 +13  1015.2  -0.8  743  286           
09 17.05.18 250 (З) 4{10}  20000 м    3/0 верхняя 
[Ci fib]
+15.5 -6.5 21 +15  1014.3  -0.6  742  284           
12 17.05.18 290 (З) 20000 м    3/1 2000 м средняя, верхняя 
[Ac lent|Ci fib]
+17.3 -6.3 19 +17  1013  -1.1  742  282           
18 17.05.18 250 (З) 20000 м    8/4 2000 м средняя, верхняя 
[Ac lent|Ci]
+13 -4.7 29 +13  1012  -0.5  741  285           
21 17.05.18 240 (ЮЗ) 20000 м    9/4 2000 м средняя, верхняя 
[Ac lent|Ci]
+11.5 -5.1 31 +12  1011.7  -0.5  740  287           
00 18.05.18 360 (С) 20000 м    9/8 300 м верхняя 
[Sc|Ci fib]
+7.1 -2.7 50 +7  1013.5  1.4  741  291           
03 18.05.18 030 (СВ) 20000 м    9/9 300 м 
[Sc]
+7.4 +0.3 61 +7  1015.2  1.7  743  291  +6.5        сухая 
06 18.05.18 060 (СВ) 20000 м    9/8 2000 м средняя, верхняя 
[Ac trans|Ci fib]
+9.6 +0.8 54 +9  1016.6  1.5  744  289           
09 18.05.18 100 (В) 20000 м    9/8 2000 м средняя, верхняя 
[Ac cast|Ci fib]
+10.7 -0.2 47 +10  1017.4  0.9  744  289           
12 18.05.18 090 (В) 20000 м    9/1 2000 м средняя, верхняя 
[Ac cast|Cs]
+12.8 -0.8 39 +12  1017.2  744  287           
18 18.05.18 120 (ЮВ) 5{10}  20000 м    9/8 300 м средняя, верхняя 
[Sc|Ac As|Ci fib]
+10.4 -2 42 +9  1016.2  -0.1  743  289           
00 19.05.18 100 (В) 20000 м  {ливн. осадки}  9/8 300 м кучево-дожд., средняя, верхняя 
[Cb cap|Ac cuf|Ci]
+4.9 +0.6 74 +4  1014.1  -2  742  293           
03 19.05.18 120 (ЮВ) 20000 м    8/4 300 м средняя, верхняя 
[Sc|Ac As|Ci]
+8 +0.6 59 +7  1011.9  -1.9  740  290  +4.9      влажная 
00 20.05.18 200 (Ю) 20000 м  {ливн. осадки}  9/3 300 м кучево-дожд., верхняя 
[Cb cap|Ci]
+13.6 +12.7 94 +19  1000.6  -0.9  732  279           
03 20.05.18 240 (ЮЗ) 5{10}  20000 м    9/3 300 м кучево-дожд., средняя 
[Cb cap|Ac cuf]
+14.7 +12.9 89 +20  1001.2  0.7  733  278  +12.7      влажная 
06 20.05.18 240 (ЮЗ) 10 км  слаб. ливневой дождь  10/10 300 м кучево-дожд. 
[Cb cap]
+14 +12.9 93 +20  1002.1  0.8  734  279           
Время (UTC), дата Ветер
(°,м/с) 
Видим.   Явления Облачность Т
(°С)
Тd
(°С)
f(%) Тe
(°С)
Pmin
(гПа)
dP
(гПа)
Po
(мм)
O2
(г/м3)
Тmin Tmax R s Состояние
почвы

Для получения пояснительной информации подведите курсор к названию столбца.

ПОГОДА в Чердыни - архив

Всё, что Вы хотите узнать о погоде в Чердыни - удобно и подробно!

Выберите нужную дату (начиная с 1 января 2015* года) и нажмите кнопку "Найти".
Будут отображены архивные сводки погоды по пункту Чердынь, начиная с указанной даты.


Отображать данные в формате CSV (для использования в таблицах Excel)


Внимание! Наш архив погоды предназначен исключительно для личного некоммерческого использования в познавательных целях. Если Вам необходимы официальные справки о состоянии погоды (для производственных, юридических, коммерческих и т.п. целей), обращайтесь в органы Росгидромета.

*Примечание: данная дата относится к архиву по метеостанциям СССР (Россия, СНГ, Балтия).
Архив по метеостанциям Зарубежной Европы и Азии (кроме Китая) хранится 10 дней, по другим регионам земного шара (Китай, Африка, Америка, Австралия, Океания) - 1 день.

Чердынь - район местоположения метеостанции


Название, широта, долгота, высота метеостанции:
Чердынь 60.4°ш. 56.5°д. 207 м над ур. моря [Российская Федерация]

Дополнительная информация

В oтличие oт бoльшинства пoгoдных сайтoв мы публикуем пoдрoбную метеoинфoрмацию в детальнoм прoфессиoнальнoм фoрмате.

Характеристики температуры и влажнoсти вoздуха измеряются на высoте 2 м в тени вдали oт зданий и деревьев.
Скoрoсть ветра измеряется на высoте 10 м (на урoвне рoста челoвека скoрoсть ветра ниже в 1.5-2 раза). Если метеoстанция нахoдится в гoрoде или в лесу, тo скoрoсть ветра занижена на 2-4 м/с пo сравнению с oткрытым местoм. Скoрoсть ветра над акватoриями крупных рек и oзёр, а также на вершинах хoлмoв на 2-5 м/с выше, чем в oбычных услoвиях.
Атмoсфернoе давление в разных тoчках местнoсти мoжет значительнo oтличаться oт давления на метеoстанции, в зависимoсти oт услoвий рельефа (при пoдъёме на 10 м давление пoнижается примернo на 1 мм рт.ст.).